This demonstration page uses our WeatherBlox Daily Observations layout. Learn more.

Hourly Observations for March 1, 2017

Temp ( °F °C ) Dew Point ( °F °C ) Humidity (%) Winds ( mph kmh ) Pressure ( in mb ) Visibility ( mi km ) Precip ( " mm )
12:54 am 00:54 Mostly Cloudy 36 2.2 31 -0.6 82 82 NW 15 24 29.86 1011 9 14.48406 0 0
1:14 am 01:14 Cloudy 36 2 30 -1 81 81 NW 17 28 29.88 1012 9 14.48406 0 0
1:54 am 01:54 Cloudy 37 2.8 30 -1.1 76 76 NW 20 31 29.87 1011 10 16.0934 0 0
2:01 am 02:01 Cloudy 37 2.8 29 -1.7 73 73 NW 23 37 29.88 1012 10 16.0934 0 0
2:30 am 02:30 Cloudy 36 2 28 -2 75 75 NW 20 31 29.91 1013 10 16.0934 0 0
2:54 am 02:54 Cloudy 35 1.7 28 -2.2 76 76 NW 22 35 29.87 1012 10 16.0934 0 0
3:11 am 03:11 Cloudy 35 1.7 28 -2.2 76 76 NW 15 24 29.94 1014 10 16.0934 0 0
3:28 am 03:28 Cloudy 36 2 28 -2 75 75 NW 15 24 29.94 1014 10 16.0934 0 0
3:50 am 03:50 Cloudy 36 2 27 -3 70 70 NW 13 20 29.94 1014 10 16.0934 0 0
3:54 am 03:54 Cloudy 35 1.7 27 -2.8 72 72 NW 15 24 29.91 1013 10 16.0934 0 0
4:54 am 04:54 Cloudy 34 1.1 26 -3.3 73 73 NW 13 20 29.94 1014 10 16.0934 0 0
5:54 am 05:54 Cloudy 34 1.1 25 -3.9 70 70 WNW 16 26 29.98 1015 10 16.0934 0 0
6:28 am 06:28 Partly Cloudy 34 1 25 -4 70 70 WNW 13 20 30.03 1017 10 16.0934 0 0
6:54 am 06:54 Clear 32 0 24 -4.4 73 73 WNW 13 20 30.01 1016 10 16.0934 0 0
7:27 am 07:27 Mostly Cloudy 32 0 25 -3.9 75 75 WNW 10 17 30.06 1018 10 16.0934 0 0
7:54 am 07:54 Cloudy 32 0 25 -3.9 75 75 WNW 12 19 30.05 1018 10 16.0934 0 0
8:31 am 08:31 Partly Cloudy 34 1.1 25 -3.9 70 70 NW 20 31 30.09 1019 10 16.0934 0 0
8:49 am 08:49 Mostly Cloudy 34 1 25 -4 70 70 NW 21 33 30.12 1020 10 16.0934 0 0
8:54 am 08:54 Mostly Cloudy 34 1.1 25 -3.9 70 70 NW 20 31 30.08 1019 10 16.0934 0 0
9:23 am 09:23 Partly Cloudy 36 2.2 25 -3.9 64 64 NW 22 35 30.12 1020 10 16.0934 0 0
9:54 am 09:54 Partly Cloudy 38 3.3 25 -3.9 60 60 NW 18 30 30.11 1020 10 16.0934 0 0
10:54 am 10:54 Mostly Sunny 41 5 25 -3.9 53 53 WNW 16 26 30.15 1021 10 16.0934 0 0
11:54 am 11:54 Sunny 43 6.1 26 -3.3 51 51 NW 17 28 30.16 1021 10 16.0934 0 0
12:54 pm 12:54 Mostly Cloudy 43 6.1 26 -3.3 51 51 WNW 21 33 30.16 1021 10 16.0934 0 0
1:54 pm 13:54 Mostly Cloudy 44 6.7 25 -3.9 47 47 NW 29 46 30.17 1022 10 16.0934 0 0
2:54 pm 14:54 Partly Cloudy 46 7.8 23 -5 40 40 NW 22 35 30.19 1022 10 16.0934 0 0
3:54 pm 15:54 Mostly Sunny 46 7.8 21 -6.1 37 37 NW 21 33 30.2 1023 10 16.0934 0 0
4:54 pm 16:54 Mostly Cloudy 46 7.8 19 -7.2 34 34 NW 21 33 30.22 1023 10 16.0934 0 0
5:54 pm 17:54 Sunny 43 6.1 19 -7.2 38 38 NW 14 22 30.23 1024 10 16.0934 0 0
6:54 pm 18:54 Clear 39 3.9 20 -6.7 46 46 NNW 6 9 30.26 1025 10 16.0934 0 0
7:54 pm 19:54 Clear 36 2.2 20 -6.7 52 52 WNW 5 7 30.28 1026 10 16.0934 0 0
8:54 pm 20:54 Clear 31 -0.6 20 -6.7 64 64 Calm 30.29 1026 10 16.0934 0 0
9:54 pm 21:54 Clear 29 -1.7 20 -6.7 69 69 Calm 30.3 1026 10 16.0934 0 0
10:54 pm 22:54 Clear 24 -4.4 18 -7.8 77 77 Calm 30.31 1026 10 16.0934 0 0
11:54 pm 23:54 Clear 26 -3.3 19 -7.2 75 75 W 3 6 30.31 1026 10 16.0934 0 0

Powered by AerisWeather